Regional Weather Roundup
Issued by NWS

Home | Current Version | Previous Version | Graphics & Text | Print | Product List | Glossary On
Versions: 1 2 3 4 5 6 7 8 9 10 11 12 13 14 15 16 17 18 19 20 21 22 23 24 25 26 27 28 29 30 31 32 33 34 35 36 37 38 39 40 41 42 43 44 45 46 47 48 49 50
000
ASUS43 KMKX 072110
RWRWI

WISCONSIN REGIONAL WEATHER ROUNDUP
NATIONAL WEATHER SERVICE MILWAUKEE/SULLIVAN WI
300 PM CST SUN FEB 07 2016

NOTE: "FAIR" INDICATES FEW OR NO CLOUDS BELOW 12,000 FEET WITH NO
SIGNIFICANT WEATHER AND/OR OBSTRUCTIONS TO VISIBILITY.

WIZ001-002-006>008-014>016-023>028-072200-
NORTHWEST WISCONSIN

CITY           SKY/WX    TMP DP  RH WIND       PRES   REMARKS
SUPERIOR ARPT  DRIZZLE   35  33  94 SW9       29.49R WCI  27
ASHLAND        CLOUDY    37  32  82 SW9       29.48S WCI  30
HAYWARD        LGT SNOW  34  31  88 SW7       29.51R FOG     WCI  28
SIREN          LGT RAIN  35  32  90 W12G17    29.55R WCI  26
CUMBERLAND     LGT RAIN  34  30  86 W14       29.55R WCI  24
RICE LAKE      CLOUDY    38  28  68 W13G21    29.57R WCI  30
CHETEK         CLOUDY    38  27  64 W12G17    29.55S WCI  31
LADYSMITH      CLOUDY    38  30  73 W10G22    29.55R WCI  31
EAU CLAIRE     CLOUDY    39  25  57 W17G23    29.58R WCI  30
MENOMONIE      CLOUDY    40  26  55 W14G21    29.59S WCI  33
NEW RICHMOND   CLOUDY    38  27  64 W18       29.58R WCI  28
OSCEOLA        CLOUDY    38  29  68 W14       29.60R WCI  30
$$

WIZ003>005-009-010-017-018-072200-
NORTH CENTRAL WISCONSIN

CITY           SKY/WX    TMP DP  RH WIND       PRES   REMARKS
MANITOWISH WTR FLURRIES  33  32  96 SW9       29.47R WCI  25
ARBOR VITAE    LGT SNOW  37  34  91 W8        29.49R WCI  30
WOODRUFF       LGT SNOW  37  34  91 W8        29.49R WCI  30
RHINELANDER    CLOUDY    34  30  85 W10       29.50S WCI  26
EAGLE RIVER    LGT SNOW  32  32  99 SW6       29.48S WCI  27
LAND O LAKES   LGT SNOW  33  32  97 SW5       29.48S WCI  29
PHILLIPS       CLOUDY    35  29  81 SW7       29.50R WCI  29
TOMAHAWK       CLOUDY    35  29  79 SW3       29.52R
MEDFORD        CLOUDY    36  28  72 W15       29.53S WCI  26
MERRILL        CLOUDY    37  29  75 W9        29.54R WCI  30
$$

WIZ029-030-035-036-043>047-072200-
CENTRAL WISCONSIN

CITY           SKY/WX    TMP DP  RH WIND       PRES   REMARKS
WAUSAU         CLOUDY    39  28  64 SW15G22   29.54R WCI  31
MOSINEE        CLOUDY    37  28  70 SW12      29.57R WCI  30
MARSHFIELD     CLOUDY    39  26  59 W13       29.55S WCI  31
STEVENS POINT  CLOUDY    38  27  65 W9        29.57S WCI  31
WAUPACA        CLOUDY    42  29  61 W9        29.60R
WAUTOMA        CLOUDY    42  28  58 SW13      29.61R
WISC RAPIDS    CLOUDY    41  26  55 W12       29.59S
CAMP DOUGLAS   PTSUNNY   39  30  70 W18       29.61R WCI  30
$$

WIZ011>013-019>022-031-037>040-048>050-072200-
NORTHEAST WISCONSIN

CITY           SKY/WX    TMP DP  RH WIND       PRES   REMARKS
ANTIGO         CLOUDY    35  29  80 W12       29.53R WCI  26
SHAWANO        CLOUDY    41  30  65 SW7       29.57S
OCONTO         CLOUDY    39  31  73 SW6       29.58R WCI  35
STURGEON BAY   CLOUDY    39  28  65 S9        29.60S WCI  33
GREEN BAY      CLOUDY    40  30  67 W10       29.59R WCI  33
MANITOWOC      CLOUDY    41  30  65 SW13      29.62R
APPLETON       PTSUNNY   39  27  60 SW13      29.58R WCI  32
CLINTONVILLE   CLOUDY    39  28  65 W10       29.58S WCI  32
OSHKOSH        MOSUNNY   41  29  62 SW8       29.60S
$$

WIZ032>034-041-042-053>061-072200-
SOUTHWEST WISCONSIN

CITY           SKY/WX    TMP DP  RH WIND       PRES   REMARKS
LA CROSSE      MOSUNNY   40  25  55 W22       29.65S WCI  30
SPARTA         SUNNY     41  27  57 W10G17    29.64R
VIROQUA        SUNNY     38  27  64 W13G25    29.65R WCI  30
BOSCOBEL       SUNNY     43  25  49 W22G29    29.70R
PRAIRIE DU CHI SUNNY     40  26  56 W16G23    29.72R WCI  32
PLATTEVILLE    SUNNY     39  28  63 W18G26    29.71R WCI  30
$$

WIZ056-057-062-063-064-067-068-072200-
SOUTH CENTRAL WISCONSIN

CITY           SKY/WX    TMP DP  RH WIND       PRES   REMARKS
REEDSBURG      MOSUNNY   40  28  62 SW12G18   29.64R WCI  32
BARABOO/DELLS  MOSUNNY   40  26  57 W13       29.63R WCI  33
LONE ROCK      CLOUDY    41  25  53 W18G25    29.67S
MINERAL POINT  SUNNY     41  28  60 W21       29.68R
MADISON        PTSUNNY   40  27  59 SW8       29.65R WCI  34
MIDDLETON      SUNNY     43  28  56 SW15      29.65S
WATERTOWN      MOSUNNY   41  30  65 SW14      29.65R
MONROE         SUNNY     41  28  60 W23G29    29.69R
JANESVILLE     SUNNY     45  30  57 W13G18    29.68S
$$

WIZ051-052-058>065-066-070>072-072200-
SOUTHEAST WISCONSIN

CITY           SKY/WX    TMP DP  RH WIND       PRES   REMARKS
MILWAUKEE      MOSUNNY   45  31  58 SW16      29.66R
WAUKESHA       MOSUNNY   41  30  65 SW13G23   29.66R
MILWAUKEE/TIMM SUNNY     43  28  56 SW13G20   29.66R
RACINE         CLOUDY    44  31  60 SW15G25   29.68R
BURLINGTON     SUNNY     41  31  66 SW15G23   29.68S
KENOSHA        CLOUDY    43  32  65 SW12      29.68R
FOND DU LAC    SUNNY     41  30  65 SW10      29.62R
SHEBOYGAN      PTSUNNY   40  30  67 W13       29.62R WCI  32
WEST BEND      PTSUNNY   41  30  65 W15       29.63S
JUNEAU         SUNNY     39  31  71 SW13      29.65R WCI  32
$$

LSZ147-162-072200-
LAKE SUPERIOR

STATION/POSITION TIME  TEMP    WIND        PRES    WAVE
                       AIR SEA DIR/SP/G            HT/PER
                 (UTC) (F)     (DEG/KT/KT) (MB)    (FT/S)
DEVILS ISLAND    2100   35     240/ 18/ 21  998.1R
PORT WING        2040   37     220/  8/ 15  998.3S
SAXON HARBOR     2040   37                  998.0S
$$

LMZ867-665-643>646-072200-
LAKE MICHIGAN

STATION/POSITION TIME  TEMP    WIND        PRES    WAVE
                       AIR SEA DIR/SP/G            HT/PER
                 (UTC) (F)     (DEG/KT/KT) (MB)    (FT/S)
CHAMBERS ISLAND  2000   37     190/  6/ 11 1001.7R
NORTHPORT PIER   2000   42     170/  3/  8 1001.0F
KEWAUNEE LAKESHO 2000   41     240/  7/ 14 1001.5R
SHEBOYGAN LAKESH 2100   43     250/ 14/ 17 1003.9R
PORT WASHINGTON  2000   45     240/  8/ 15 1004.1F
MILWAUKEE LAKESH 2010   44     230/ 15/ 19   N/A
KENOSHA   LAKESH 2100   42     240/ 12/ 22 1005.4R
$$

TC  - TEMPERATURE IN CELSIUS
VSB - VISIBILITY IN STATUTE MILES
WCI - WIND CHILL INDEX
HX  - HEAT INDEX




USA.gov is the U.S. government's official web portal to all federal, state and local government web resources and services.